Find Starlink 32759

NORAD ID: 62751 Int'l Des: 2025-014 Owner: SPXS Country: US Constellation: starlink operational
LEOCIRCULAR

Live Position

Loading 3D Globe...

About Starlink 32759

Description loading...

Upcoming Passes

Passes for default location (London). Set your location on the main map for personalized predictions.

Altitude History

Loading altitude history...

Two-Line Element Set

1 62751U 25014S 26122.30167494 .00020640 00000-0 75815-3 0 9991
2 62751 42.9979 215.3400 0001197 257.6808 102.3910 15.27549787 71416
Epoch: May 2, 2026 • Age: 11 hours

Current Status

Altitude 482.8 km
Velocity 7.63 km/s
Sub-Earth Point 2.47°N, 81.1°E
Launch Date Jan 21, 2025
Age 1.2 years
Type internet

Technical Details

Classification Payload
Mass 730.00 kg
Dry Mass 700.00 kg
Total Mass 730.00 kg
Length 0.30 m
Diameter 4.10 m
Span 29.00 m
Shape Box + pan
Manufacturer SPXS
Bus Type Starlink V2M
Phase Status In Orbit
Owner/State SPXS/US

Most Searched